Regional Weather Roundup
Issued by NWS

Home | Current Version | Previous Version | Text Only | Print | Product List | Glossary Off
Versions: 1 2 3 4 5 6 7 8 9 10 11 12 13 14 15 16 17 18 19 20 21 22 23 24 25 26 27 28 29 30 31 32 33 34 35 36 37 38 39 40 41 42 43 44 45 46 47 48 49 50

000
ASUS43 KDTX 222110
RWRMI
MICHIGAN HOURLY REGIONAL WEATHER ROUNDUP
NATIONAL WEATHER SERVICE DETROIT/PONTIAC MI
500 PM EDT TUE JUL 22 2014

NOTE: "FAIR" INDICATES FEW OR NO CLOUDS BELOW 12,000 FEET WITH NO
SIGNIFICANT WEATHER AND/OR OBSTRUCTION TO VISIBILITY.

MIZ047>049-052>055-059>063-066>070-074>076-081>083-222200-
SOUTHEAST LOWER MICHIGAN

CITY           SKY/WX    TMP DP  RH WIND       PRES   REMARKS
ADRIAN         SUNNY     89  64  43 SW12G18   30.00F HX  90
ALMA           SUNNY     86  64  48 S16G23    29.93S
ANN ARBOR      SUNNY     89  63  41 SW14      29.99F HX  90
BAD AXE        PTSUNNY   85  66  51 SW13      29.94F
CARO           SUNNY     89  66  46 SW14G20   29.94F HX  91
DETROIT CITY   SUNNY     91  64  40 SW13G21   29.97F HX  92
DETROIT        MOSUNNY   92  65  40 S12G17    29.99F HX  94
FLINT          MOSUNNY   89  67  47 SW14      29.96F HX  92
GROSSE ILE     SUNNY     84  70  61 S13       29.98F
HILLSDALE      SUNNY     87  67  51 SW5       30.02F HX  90
HOWELL         SUNNY     86  63  46 SW14      29.98F

CITY           SKY/WX    TMP DP  RH WIND       PRES   REMARKS
JACKSON        SUNNY     86  67  52 SW12      30.00F
LAMBERTVILLE   MOSUNNY   90  63  40 SW9G17    30.00F HX  90
LANSING        SUNNY     86  67  52 SW13      29.96F
LAPEER         FAIR      88  64  44 SW12G22   29.97F
MASON          SUNNY     85  67  55 S7        29.98F
MONROE         SUNNY     91  63  38 SW16      29.98F HX  92
MT. CLEMENS    MOSUNNY   90  65  43 SW18G30   29.95F HX  91
PONTIAC        SUNNY     88  64  44 S10G16    29.98F
PORT HOPE        N/A     86  65  49 VRB6      29.91F
PORT HURON     SUNNY     86  68  54 S10G17    29.97F
TRI CITIES     SUNNY     88  67  49 SW17      29.92F HX  91
TROY           SUNNY     90  62  38 SW13G20   29.99F HX  90
SAGINAW HB     SUNNY     88  64  45 SW16G24   29.91F
$$
MIZ043>046-050>051-056>058-064>065-071>073-077>080-222200-
SOUTHWEST LOWER MICHIGAN

CITY           SKY/WX    TMP DP  RH WIND       PRES   REMARKS
BATTLE CREEK   SUNNY     87  67  51 S12       29.99F HX  90
BENTON HARBOR  SUNNY     86  67  52 S12       29.95F
BIG RAPIDS     SUNNY     85  67  54 SW14G21   29.91S
COLDWATER      SUNNY     86  68  54 SW7       30.00F HX  90
FREMONT        FAIR      86  65  49 SW16G24   29.92R
HOLLAND        MOSUNNY   90  68  48 S14       29.93F HX  94
GRAND RAPIDS   MOSUNNY   88  69  53 S14       29.93F HX  92
IONIA          FAIR      86  65  49 SW15      29.94F
KALAMAZOO      SUNNY     87  67  51 S15       29.99F HX  90
LUDINGTON      CLOUDY    78  67  70 SW20G29   29.92R
MARSHALL       SUNNY     85  68  56 SW9       29.98F
MOUNT PLEASANT SUNNY     87  64  46 S13G23    29.90F
MUSKEGON       MOSUNNY   85  67  54 S17G29    29.92F
SOUTH HAVEN    MOSUNNY   86  70  58 S10G17    29.94F HX  91
$$
MIZ016>042-222200-
NORTHERN LOWER MICHIGAN

CITY           SKY/WX    TMP DP  RH WIND       PRES   REMARKS
ALPENA         CLOUDY    85  67  54 SW7       29.83F
BEAVER ISLAND  CLOUDY    72  66  82 SW16G28   29.84S
BELLAIRE       PTSUNNY   84  69  61 SW10G16   29.85F
CADILLAC       CLOUDY    81  71  72 W14G20    29.93R
CHARLEVOIX     MOSUNNY   85  71  63 SW18G25   29.87S HX  90
FRANKFORT      PTSUNNY   81  65  58 S16G26    29.89S
GAYLORD        CLOUDY    80  68  66 W9        29.90S
GRAYLING       CLOUDY    82  67  60 SW7G17    29.90F
HARBOR SPRINGS CLOUDY    80  71  76 W6        29.84F
HOUGHTON LAKE  CLOUDY    82  67  60 SW12      29.90F
MANISTEE       CLOUDY    81  66  61 SW15G21   29.91S
OSCODA         MOSUNNY   89  64  43 S13G21    29.87F HX  90
PELLSTON       PTSUNNY   83  73  72 W15G21    29.83F
ROGERS CITY    CLOUDY    78  72  82 SW9       29.83F
TRAVERSE CITY  PTSUNNY   84  69  60 W12       29.85F
$$
MIZ007>008-015-222200-
EASTERN UPPER MICHIGAN

CITY           SKY/WX    TMP DP  RH WIND       PRES   REMARKS
KINROSS        CLOUDY    72  68  88 W12G17    29.83S
MACKINAC ISLAN CLOUDY    73  68  83 SW10G20   29.82F
NEWBERRY       PTSUNNY   78  65  64 MISG      29.82F
S. S. MARIE    CLOUDY    73  67  81 SW12G23   29.81F HAZE
MUNISING         N/A     68  57  68 NW20G31   29.89R
$$
MIZ004>006-011>014-085-222200-
CENTRAL UPPER MICHIGAN

CITY           SKY/WX    TMP DP  RH WIND       PRES   REMARKS
MANISTIQUE     PTSUNNY   74  65  73 CALM      29.83R
ESCANABA       PTSUNNY   86  64  48 NW12G20   29.85R
MENOMINEE      PTSUNNY   90  66  45 N15       29.84R HX  92
$$
MIZ001>003-009>011-084-222200-
WESTERN UPPER MICHIGAN

CITY           SKY/WX    TMP DP  RH WIND       PRES   REMARKS
IRON MOUNTAIN  CLOUDY    80  63  55 NW20G28   29.92R
HOUGHTON       CLOUDY    65  57  75 NW14      29.95R
IRONWOOD       CLOUDY    68  61  77 NW9G16    30.00R
$$

ABBREVIATIONS USED IN REMARKS
   TC - TEMPERATURE IN CELSIUS
  WCI - WIND CHILL INDEX
   HX - HEAT INDEX
  VSB - VISIBILITY




USA.gov is the U.S. government's official web portal to all federal, state and local government web resources and services.